Time,TemperatureF,DewpointF,PressureIn,WindDirection,WindDirectionDegrees,WindSpeedMPH,WindSpeedGustMPH,Humidity,HourlyPrecipIn,Conditions,Clouds,dailyrainin,SoftwareType,DateUTC
2013-05-07 00:00:00,53.0,53.0,30.11,NNW,338,3.0,5.0,100,0.00,,,0.00,Weather View 32 v70,2013-05-07 04:00:00,
2013-05-07 00:01:00,53.0,53.0,30.11,NNE,22,2.0,5.0,100,0.00,,,0.00,Weather View 32 v70,2013-05-07 04:01:00,
2013-05-07 00:06:00,53.0,53.0,30.11,NW,315,3.0,5.0,100,0.00,,,0.00,Weather View 32 v70,2013-05-07 04:06:00,
2013-05-07 00:11:00,53.0,53.0,30.11,West,270,2.0,5.0,100,0.00,,,0.00,Weather View 32 v70,2013-05-07 04:11:00,
2013-05-07 00:16:00,53.0,53.0,30.11,WNW,292,2.0,5.0,100,0.00,,,0.00,Weather View 32 v70,2013-05-07 04:16:00,
2013-05-07 00:21:00,53.0,53.0,30.11,WNW,292,2.0,5.0,100,0.00,,,0.00,Weather View 32 v70,2013-05-07 04:21:00,
2013-05-07 00:26:00,52.0,52.0,30.11,West,270,2.0,5.0,100,0.00,,,0.00,Weather View 32 v70,2013-05-07 04:26:00,
2013-05-07 00:31:00,52.0,52.0,30.11,WNW,292,2.0,5.0,100,0.00,,,0.00,Weather View 32 v70,2013-05-07 04:31:00,
2013-05-07 00:36:00,52.0,52.0,30.11,NNW,338,1.0,5.0,100,0.00,,,0.00,Weather View 32 v70,2013-05-07 04:36:00,
2013-05-07 00:41:00,52.0,52.0,30.11,NNW,338,1.0,5.0,100,0.00,,,0.00,Weather View 32 v70,2013-05-07 04:41:00,
2013-05-07 00:46:00,52.0,52.0,30.10,WNW,292,3.0,4.0,100,0.00,,,0.00,Weather View 32 v70,2013-05-07 04:46:00,
2013-05-07 00:51:00,52.0,52.0,30.10,NW,315,1.0,5.0,100,0.00,,,0.00,Weather View 32 v70,2013-05-07 04:51:00,
2013-05-07 00:56:00,52.0,52.0,30.10,NNW,338,1.0,5.0,100,0.00,,,0.00,Weather View 32 v70,2013-05-07 04:56:00,
2013-05-07 01:01:00,52.0,52.0,30.10,NNW,338,4.0,5.0,100,0.00,,,0.00,Weather View 32 v70,2013-05-07 05:01:00,
2013-05-07 01:06:00,52.0,52.0,30.10,NNW,338,2.0,6.0,100,0.00,,,0.00,Weather View 32 v70,2013-05-07 05:06:00,
2013-05-07 01:11:00,52.0,52.0,30.10,NNW,338,1.0,6.0,100,0.00,,,0.00,Weather View 32 v70,2013-05-07 05:11:00,
2013-05-07 01:16:00,52.0,52.0,30.10,WNW,292,4.0,6.0,100,0.00,,,0.00,Weather View 32 v70,2013-05-07 05:16:00,
2013-05-07 01:21:00,52.0,52.0,30.09,WNW,292,8.0,8.0,100,0.00,,,0.00,Weather View 32 v70,2013-05-07 05:21:00,
2013-05-07 01:26:00,53.0,53.0,30.09,NW,315,5.0,8.0,100,0.00,,,0.00,Weather View 32 v70,2013-05-07 05:26:00,
2013-05-07 01:31:00,53.0,53.0,30.09,NNW,338,1.0,8.0,100,0.00,,,0.00,Weather View 32 v70,2013-05-07 05:31:00,
2013-05-07 01:36:00,53.0,53.0,30.09,WNW,292,3.0,8.0,100,0.00,,,0.00,Weather View 32 v70,2013-05-07 05:36:00,
2013-05-07 01:41:00,53.0,53.0,30.09,North,0,1.0,8.0,100,0.00,,,0.00,Weather View 32 v70,2013-05-07 05:41:00,
2013-05-07 01:46:00,53.0,53.0,30.09,NNE,22,1.0,8.0,100,0.00,,,0.00,Weather View 32 v70,2013-05-07 05:46:00,
2013-05-07 01:51:00,53.0,53.0,30.09,North,0,0.0,8.0,100,0.00,,,0.00,Weather View 32 v70,2013-05-07 05:51:00,
2013-05-07 01:56:00,53.0,53.0,30.09,NNE,22,0.0,8.0,100,0.00,,,0.00,Weather View 32 v70,2013-05-07 05:56:00,
2013-05-07 02:01:00,53.0,53.0,30.09,NNW,338,3.0,8.0,100,0.00,,,0.00,Weather View 32 v70,2013-05-07 06:01:00,
2013-05-07 02:06:00,53.0,53.0,30.09,NW,315,3.0,8.0,100,0.00,,,0.00,Weather View 32 v70,2013-05-07 06:06:00,
2013-05-07 02:11:00,53.0,53.0,30.09,North,0,2.0,8.0,100,0.00,,,0.00,Weather View 32 v70,2013-05-07 06:11:00,
2013-05-07 02:16:00,53.0,53.0,30.08,NNE,22,3.0,8.0,100,0.00,,,0.00,Weather View 32 v70,2013-05-07 06:16:00,
2013-05-07 02:21:00,53.0,53.0,30.08,NNW,338,1.0,8.0,100,0.00,,,0.00,Weather View 32 v70,2013-05-07 06:21:00,
2013-05-07 02:26:00,53.0,53.0,30.08,NNW,338,2.0,6.0,100,0.00,,,0.00,Weather View 32 v70,2013-05-07 06:26:00,
2013-05-07 02:31:00,53.0,53.0,30.08,North,0,1.0,5.0,100,0.00,,,0.00,Weather View 32 v70,2013-05-07 06:31:00,
2013-05-07 02:36:00,53.0,53.0,30.08,West,270,1.0,5.0,100,0.00,,,0.00,Weather View 32 v70,2013-05-07 06:36:00,
2013-05-07 02:41:00,53.0,53.0,30.08,WNW,292,3.0,5.0,100,0.00,,,0.00,Weather View 32 v70,2013-05-07 06:41:00,
2013-05-07 02:46:00,53.0,53.0,30.08,WNW,292,3.0,5.0,100,0.00,,,0.00,Weather View 32 v70,2013-05-07 06:46:00,
2013-05-07 02:51:00,54.0,54.0,30.08,NE,45,1.0,5.0,100,0.00,,,0.00,Weather View 32 v70,2013-05-07 06:51:00,
2013-05-07 02:56:00,53.0,53.0,30.07,West,270,4.0,5.0,100,0.00,,,0.00,Weather View 32 v70,2013-05-07 06:56:00,
2013-05-07 03:01:00,53.0,53.0,30.07,WNW,292,4.0,6.0,100,0.00,,,0.00,Weather View 32 v70,2013-05-07 07:01:00,
2013-05-07 03:06:00,54.0,54.0,30.07,NW,315,1.0,6.0,100,0.00,,,0.00,Weather View 32 v70,2013-05-07 07:06:00,
2013-05-07 03:11:00,53.0,53.0,30.07,SW,225,3.0,6.0,100,0.00,,,0.00,Weather View 32 v70,2013-05-07 07:11:00,
2013-05-07 03:16:00,54.0,54.0,30.07,WNW,292,2.0,6.0,100,0.00,,,0.00,Weather View 32 v70,2013-05-07 07:16:00,
2013-05-07 03:21:00,54.0,54.0,30.07,West,270,1.0,6.0,100,0.00,,,0.00,Weather View 32 v70,2013-05-07 07:21:00,
2013-05-07 03:26:00,54.0,54.0,30.07,WNW,292,1.0,6.0,100,0.00,,,0.00,Weather View 32 v70,2013-05-07 07:26:00,
2013-05-07 03:31:00,54.0,54.0,30.07,WNW,292,3.0,6.0,100,0.00,,,0.00,Weather View 32 v70,2013-05-07 07:31:00,
2013-05-07 03:36:00,53.0,53.0,30.07,NNW,338,3.0,6.0,100,0.00,,,0.00,Weather View 32 v70,2013-05-07 07:36:00,
2013-05-07 03:41:00,53.0,53.0,30.07,West,270,4.0,6.0,100,0.00,,,0.00,Weather View 32 v70,2013-05-07 07:41:00,
2013-05-07 03:46:00,53.0,53.0,30.07,NW,315,6.0,6.0,100,0.00,,,0.00,Weather View 32 v70,2013-05-07 07:46:00,
2013-05-07 03:51:00,54.0,54.0,30.07,North,0,1.0,6.0,100,0.00,,,0.00,Weather View 32 v70,2013-05-07 07:51:00,
2013-05-07 03:56:00,53.0,53.0,30.07,NNW,338,3.0,6.0,100,0.00,,,0.00,Weather View 32 v70,2013-05-07 07:56:00,
2013-05-07 04:01:00,53.0,53.0,30.07,WNW,292,4.0,6.0,100,0.00,,,0.00,Weather View 32 v70,2013-05-07 08:01:00,
2013-05-07 04:06:00,53.0,53.0,30.06,NW,315,3.0,6.0,100,0.00,,,0.00,Weather View 32 v70,2013-05-07 08:06:00,
2013-05-07 04:11:00,54.0,54.0,30.07,NW,315,2.0,6.0,100,0.00,,,0.00,Weather View 32 v70,2013-05-07 08:11:00,
2013-05-07 04:16:00,54.0,54.0,30.07,WNW,292,0.0,6.0,100,0.00,,,0.00,Weather View 32 v70,2013-05-07 08:16:00,
2013-05-07 04:21:00,54.0,54.0,30.07,SSW,202,1.0,6.0,100,0.00,,,0.00,Weather View 32 v70,2013-05-07 08:21:00,
2013-05-07 04:26:00,54.0,54.0,30.07,NW,315,1.0,6.0,100,0.00,,,0.00,Weather View 32 v70,2013-05-07 08:26:00,
2013-05-07 04:31:00,53.0,53.0,30.07,West,270,3.0,6.0,100,0.00,,,0.00,Weather View 32 v70,2013-05-07 08:31:00,
2013-05-07 04:36:00,53.0,53.0,30.07,North,0,0.0,6.0,100,0.00,,,0.00,Weather View 32 v70,2013-05-07 08:36:00,
2013-05-07 04:41:00,53.0,53.0,30.07,NNW,338,3.0,6.0,100,0.00,,,0.00,Weather View 32 v70,2013-05-07 08:41:00,
2013-05-07 04:46:00,53.0,53.0,30.07,NW,315,0.0,6.0,100,0.00,,,0.00,Weather View 32 v70,2013-05-07 08:46:00,
2013-05-07 04:51:00,53.0,53.0,30.07,NW,315,1.0,6.0,100,0.00,,,0.00,Weather View 32 v70,2013-05-07 08:51:00,
2013-05-07 04:56:00,53.0,53.0,30.07,NNW,338,2.0,6.0,100,0.00,,,0.00,Weather View 32 v70,2013-05-07 08:56:00,
2013-05-07 05:01:00,52.0,52.0,30.07,NW,315,1.0,6.0,100,0.00,,,0.00,Weather View 32 v70,2013-05-07 09:01:00,
2013-05-07 05:06:00,52.0,52.0,30.07,North,0,1.0,6.0,100,0.00,,,0.00,Weather View 32 v70,2013-05-07 09:06:00,
2013-05-07 05:11:00,52.0,52.0,30.07,NE,45,1.0,6.0,100,0.00,,,0.00,Weather View 32 v70,2013-05-07 09:11:00,
2013-05-07 05:16:00,52.0,52.0,30.08,East,90,1.0,5.0,100,0.00,,,0.00,Weather View 32 v70,2013-05-07 09:16:00,
2013-05-07 05:21:00,52.0,52.0,30.08,NNE,22,0.0,5.0,100,0.00,,,0.00,Weather View 32 v70,2013-05-07 09:21:00,
2013-05-07 05:26:00,52.0,52.0,30.07,NW,315,1.0,5.0,100,0.00,,,0.00,Weather View 32 v70,2013-05-07 09:26:00,
2013-05-07 05:31:00,52.0,52.0,30.08,West,270,1.0,5.0,100,0.00,,,0.00,Weather View 32 v70,2013-05-07 09:31:00,
2013-05-07 05:36:00,52.0,52.0,30.07,WNW,292,1.0,5.0,100,0.00,,,0.00,Weather View 32 v70,2013-05-07 09:36:00,
2013-05-07 05:41:00,52.0,52.0,30.08,WNW,292,0.0,5.0,100,0.00,,,0.00,Weather View 32 v70,2013-05-07 09:41:00,
2013-05-07 05:46:00,52.0,52.0,30.07,WNW,292,2.0,5.0,100,0.00,,,0.00,Weather View 32 v70,2013-05-07 09:46:00,
2013-05-07 05:51:00,51.0,51.0,30.07,West,270,1.0,5.0,100,0.00,,,0.00,Weather View 32 v70,2013-05-07 09:51:00,
2013-05-07 05:56:00,51.0,51.0,30.07,NW,315,1.0,5.0,100,0.00,,,0.00,Weather View 32 v70,2013-05-07 09:56:00,
2013-05-07 06:01:00,51.0,51.0,30.07,WNW,292,2.0,5.0,100,0.00,,,0.00,Weather View 32 v70,2013-05-07 10:01:00,
2013-05-07 06:06:00,51.0,51.0,30.08,WNW,292,1.0,3.0,100,0.00,,,0.00,Weather View 32 v70,2013-05-07 10:06:00,
2013-05-07 06:11:00,51.0,51.0,30.08,NW,315,2.0,3.0,100,0.00,,,0.00,Weather View 32 v70,2013-05-07 10:11:00,
2013-05-07 06:16:00,51.0,51.0,30.08,WNW,292,1.0,3.0,100,0.00,,,0.00,Weather View 32 v70,2013-05-07 10:16:00,
2013-05-07 06:21:00,51.0,51.0,30.08,NW,315,1.0,3.0,100,0.00,,,0.00,Weather View 32 v70,2013-05-07 10:21:00,
2013-05-07 06:26:00,51.0,51.0,30.07,NW,315,3.0,4.0,100,0.00,,,0.00,Weather View 32 v70,2013-05-07 10:26:00,
2013-05-07 06:31:00,51.0,51.0,30.08,WNW,292,3.0,5.0,100,0.00,,,0.00,Weather View 32 v70,2013-05-07 10:31:00,
2013-05-07 06:36:00,51.0,51.0,30.08,West,270,1.0,5.0,100,0.00,,,0.00,Weather View 32 v70,2013-05-07 10:36:00,
2013-05-07 06:41:00,51.0,51.0,30.08,West,270,3.0,5.0,100,0.00,,,0.00,Weather View 32 v70,2013-05-07 10:41:00,
2013-05-07 06:46:00,52.0,52.0,30.08,WSW,248,1.0,5.0,100,0.00,,,0.00,Weather View 32 v70,2013-05-07 10:46:00,
2013-05-07 06:51:00,52.0,52.0,30.09,NNW,338,0.0,5.0,100,0.00,,,0.00,Weather View 32 v70,2013-05-07 10:51:00,
2013-05-07 06:56:00,52.0,52.0,30.08,West,270,1.0,5.0,100,0.00,,,0.00,Weather View 32 v70,2013-05-07 10:56:00,
2013-05-07 07:01:00,52.0,52.0,30.08,NW,315,3.0,5.0,100,0.00,,,0.00,Weather View 32 v70,2013-05-07 11:01:00,
2013-05-07 07:06:00,53.0,53.0,30.09,WNW,292,2.0,5.0,100,0.00,,,0.00,Weather View 32 v70,2013-05-07 11:06:00,
2013-05-07 07:11:00,53.0,53.0,30.08,NW,315,2.0,5.0,100,0.00,,,0.00,Weather View 32 v70,2013-05-07 11:11:00,
2013-05-07 07:16:00,53.0,53.0,30.09,NW,315,2.0,5.0,100,0.00,,,0.00,Weather View 32 v70,2013-05-07 11:16:00,
2013-05-07 07:21:00,54.0,54.0,30.09,NW,315,2.0,5.0,100,0.00,,,0.00,Weather View 32 v70,2013-05-07 11:21:00,
2013-05-07 07:26:00,54.0,54.0,30.09,West,270,3.0,5.0,100,0.00,,,0.00,Weather View 32 v70,2013-05-07 11:26:00,
2013-05-07 07:31:00,54.0,54.0,30.09,WNW,292,3.0,6.0,100,0.00,,,0.00,Weather View 32 v70,2013-05-07 11:31:00,
2013-05-07 07:36:00,54.0,54.0,30.09,NW,315,6.0,8.0,100,0.00,,,0.00,Weather View 32 v70,2013-05-07 11:36:00,
2013-05-07 07:41:00,54.0,54.0,30.09,West,270,5.0,8.0,100,0.00,,,0.00,Weather View 32 v70,2013-05-07 11:41:00,
2013-05-07 07:46:00,55.0,55.0,30.09,NW,315,1.0,8.0,100,0.00,,,0.00,Weather View 32 v70,2013-05-07 11:46:00,
2013-05-07 07:51:00,55.0,55.0,30.09,NNW,338,5.0,8.0,100,0.00,,,0.00,Weather View 32 v70,2013-05-07 11:51:00,
2013-05-07 07:56:00,55.0,55.0,30.09,NNW,338,4.0,8.0,100,0.00,,,0.00,Weather View 32 v70,2013-05-07 11:56:00,
2013-05-07 08:01:00,55.0,55.0,30.09,WNW,292,5.0,8.0,100,0.00,,,0.00,Weather View 32 v70,2013-05-07 12:01:00,
2013-05-07 08:06:00,56.0,56.0,30.08,NW,315,6.0,10.0,100,0.00,,,0.00,Weather View 32 v70,2013-05-07 12:06:00,
2013-05-07 08:11:00,56.0,56.0,30.09,NNW,338,3.0,10.0,100,0.00,,,0.00,Weather View 32 v70,2013-05-07 12:11:00,
2013-05-07 08:16:00,56.0,56.0,30.09,NW,315,6.0,10.0,100,0.00,,,0.00,Weather View 32 v70,2013-05-07 12:16:00,
2013-05-07 08:21:00,57.0,57.0,30.09,North,0,6.0,10.0,100,0.00,,,0.00,Weather View 32 v70,2013-05-07 12:21:00,
2013-05-07 08:26:00,57.0,57.0,30.09,WNW,292,5.0,11.0,100,0.00,,,0.00,Weather View 32 v70,2013-05-07 12:26:00,
2013-05-07 08:31:00,57.0,57.0,30.09,West,270,3.0,11.0,100,0.00,,,0.00,Weather View 32 v70,2013-05-07 12:31:00,
2013-05-07 08:36:00,57.0,57.0,30.09,North,0,5.0,11.0,100,0.00,,,0.00,Weather View 32 v70,2013-05-07 12:36:00,
2013-05-07 08:41:00,57.0,57.0,30.09,North,0,11.0,12.0,100,0.00,,,0.00,Weather View 32 v70,2013-05-07 12:41:00,
2013-05-07 08:46:00,58.0,57.7,30.09,North,0,9.0,12.0,99,0.00,,,0.00,Weather View 32 v70,2013-05-07 12:46:00,
2013-05-07 08:51:00,57.0,56.4,30.09,NNE,22,6.0,12.0,98,0.00,,,0.00,Weather View 32 v70,2013-05-07 12:51:00,
2013-05-07 08:56:00,58.0,57.2,30.09,NE,45,6.0,12.0,97,0.00,,,0.00,Weather View 32 v70,2013-05-07 12:56:00,
2013-05-07 09:01:00,58.0,56.6,30.09,NNE,22,5.0,12.0,95,0.00,,,0.00,Weather View 32 v70,2013-05-07 13:01:00,
2013-05-07 09:06:00,59.0,57.6,30.10,NNE,22,8.0,12.0,95,0.00,,,0.00,Weather View 32 v70,2013-05-07 13:06:00,
2013-05-07 09:11:00,60.0,58.3,30.09,NNE,22,6.0,12.0,94,0.00,,,0.00,Weather View 32 v70,2013-05-07 13:11:00,
2013-05-07 09:16:00,60.0,58.0,30.10,NNW,338,6.0,12.0,93,0.00,,,0.00,Weather View 32 v70,2013-05-07 13:16:00,
2013-05-07 09:21:00,60.0,57.4,30.10,North,0,8.0,12.0,91,0.00,,,0.00,Weather View 32 v70,2013-05-07 13:21:00,
2013-05-07 09:26:00,60.0,56.7,30.10,North,0,2.0,12.0,89,0.00,,,0.00,Weather View 32 v70,2013-05-07 13:26:00,
2013-05-07 09:31:00,60.0,56.4,30.10,NW,315,5.0,12.0,88,0.00,,,0.00,Weather View 32 v70,2013-05-07 13:31:00,
2013-05-07 09:36:00,60.0,56.1,30.10,North,0,5.0,12.0,87,0.00,,,0.00,Weather View 32 v70,2013-05-07 13:36:00,
2013-05-07 09:41:00,61.0,57.4,30.09,NNE,22,7.0,12.0,88,0.00,,,0.00,Weather View 32 v70,2013-05-07 13:41:00,
2013-05-07 09:46:00,61.0,57.4,30.09,North,0,6.0,14.0,88,0.00,,,0.00,Weather View 32 v70,2013-05-07 13:46:00,
2013-05-07 09:51:00,62.0,58.1,30.09,NNW,338,7.0,14.0,87,0.00,,,0.00,Weather View 32 v70,2013-05-07 13:51:00,
2013-05-07 09:56:00,62.0,58.1,30.09,NNE,22,5.0,14.0,87,0.00,,,0.00,Weather View 32 v70,2013-05-07 13:56:00,
2013-05-07 10:01:00,62.0,57.8,30.09,NNE,22,5.0,14.0,86,0.00,,,0.00,Weather View 32 v70,2013-05-07 14:01:00,
2013-05-07 10:06:00,62.0,58.1,30.09,North,0,9.0,14.0,87,0.00,,,0.00,Weather View 32 v70,2013-05-07 14:06:00,
2013-05-07 10:11:00,63.0,59.4,30.09,North,0,10.0,14.0,88,0.00,,,0.00,Weather View 32 v70,2013-05-07 14:11:00,
2013-05-07 10:16:00,63.0,59.1,30.09,NNW,338,8.0,14.0,87,0.00,,,0.00,Weather View 32 v70,2013-05-07 14:16:00,
2013-05-07 10:21:00,64.0,60.4,30.09,NNE,22,9.0,14.0,88,0.00,,,0.00,Weather View 32 v70,2013-05-07 14:21:00,
2013-05-07 10:26:00,64.0,60.4,30.09,North,0,5.0,14.0,88,0.00,,,0.00,Weather View 32 v70,2013-05-07 14:26:00,
2013-05-07 10:31:00,64.0,60.0,30.09,North,0,5.0,14.0,87,0.00,,,0.00,Weather View 32 v70,2013-05-07 14:31:00,
2013-05-07 10:36:00,64.0,60.4,30.09,NNE,22,10.0,14.0,88,0.00,,,0.00,Weather View 32 v70,2013-05-07 14:36:00,
2013-05-07 10:41:00,64.0,60.4,30.09,NE,45,11.0,14.0,88,0.00,,,0.00,Weather View 32 v70,2013-05-07 14:41:00,
2013-05-07 10:46:00,65.0,62.0,30.09,NNE,22,9.0,14.0,90,0.00,,,0.00,Weather View 32 v70,2013-05-07 14:46:00,
2013-05-07 10:51:00,65.0,61.7,30.09,North,0,7.0,14.0,89,0.00,,,0.00,Weather View 32 v70,2013-05-07 14:51:00,
2013-05-07 10:56:00,65.0,61.3,30.08,NNW,338,6.0,14.0,88,0.00,,,0.00,Weather View 32 v70,2013-05-07 14:56:00,
2013-05-07 11:01:00,66.0,62.7,30.09,NNW,338,5.0,14.0,89,0.00,,,0.00,Weather View 32 v70,2013-05-07 15:01:00,
2013-05-07 11:06:00,66.0,62.0,30.09,NNW,338,5.0,14.0,87,0.00,,,0.00,Weather View 32 v70,2013-05-07 15:06:00,
2013-05-07 11:11:00,66.0,61.7,30.08,NW,315,10.0,14.0,86,0.00,,,0.00,Weather View 32 v70,2013-05-07 15:11:00,
2013-05-07 11:16:00,66.0,61.7,30.08,WNW,292,6.0,14.0,86,0.00,,,0.00,Weather View 32 v70,2013-05-07 15:16:00,
2013-05-07 11:21:00,66.0,62.0,30.08,NNE,22,13.0,14.0,87,0.00,,,0.00,Weather View 32 v70,2013-05-07 15:21:00,
2013-05-07 11:26:00,66.0,61.7,30.08,North,0,4.0,14.0,86,0.00,,,0.00,Weather View 32 v70,2013-05-07 15:26:00,
2013-05-07 11:31:00,66.0,61.7,30.08,NNW,338,6.0,16.0,86,0.00,,,0.00,Weather View 32 v70,2013-05-07 15:31:00,
2013-05-07 11:36:00,66.0,62.0,30.08,NE,45,6.0,16.0,87,0.00,,,0.00,Weather View 32 v70,2013-05-07 15:36:00,
2013-05-07 11:41:00,66.0,62.0,30.08,NNE,22,6.0,16.0,87,0.00,,,0.00,Weather View 32 v70,2013-05-07 15:41:00,
2013-05-07 11:46:00,67.0,63.6,30.08,NNE,22,9.0,16.0,89,0.00,,,0.00,Weather View 32 v70,2013-05-07 15:46:00,
2013-05-07 11:51:00,67.0,63.3,30.08,NE,45,13.0,17.0,88,0.00,,,0.00,Weather View 32 v70,2013-05-07 15:51:00,
2013-05-07 11:56:00,66.0,62.3,30.08,North,0,11.0,18.0,88,0.00,,,0.00,Weather View 32 v70,2013-05-07 15:56:00,
2013-05-07 12:01:00,66.0,62.3,30.08,NNE,22,10.0,18.0,88,0.00,,,0.00,Weather View 32 v70,2013-05-07 16:01:00,
2013-05-07 12:06:00,66.0,62.3,30.08,NNE,22,10.0,18.0,88,0.00,,,0.00,Weather View 32 v70,2013-05-07 16:06:00,
2013-05-07 12:11:00,67.0,63.6,30.08,East,90,7.0,18.0,89,0.00,,,0.00,Weather View 32 v70,2013-05-07 16:11:00,
2013-05-07 12:16:00,67.0,63.6,30.08,NNE,22,6.0,18.0,89,0.00,,,0.00,Weather View 32 v70,2013-05-07 16:16:00,
2013-05-07 12:21:00,67.0,63.6,30.08,NE,45,7.0,18.0,89,0.00,,,0.00,Weather View 32 v70,2013-05-07 16:21:00,
2013-05-07 12:26:00,67.0,63.3,30.07,NW,315,6.0,18.0,88,0.00,,,0.00,Weather View 32 v70,2013-05-07 16:26:00,
2013-05-07 12:31:00,66.0,63.0,30.07,North,0,13.0,18.0,90,0.00,,,0.00,Weather View 32 v70,2013-05-07 16:31:00,
2013-05-07 12:36:00,66.0,63.0,30.07,NNW,338,6.0,18.0,90,0.00,,,0.00,Weather View 32 v70,2013-05-07 16:36:00,
2013-05-07 12:41:00,66.0,63.3,30.07,NNE,22,13.0,20.0,91,0.00,,,0.00,Weather View 32 v70,2013-05-07 16:41:00,
2013-05-07 12:46:00,66.0,63.6,30.07,NNW,338,4.0,20.0,92,0.00,,,0.00,Weather View 32 v70,2013-05-07 16:46:00,
2013-05-07 12:51:00,67.0,64.9,30.07,NNE,22,10.0,20.0,93,0.00,,,0.00,Weather View 32 v70,2013-05-07 16:51:00,
2013-05-07 12:56:00,66.0,63.9,30.06,NNE,22,15.0,20.0,93,0.00,,,0.00,Weather View 32 v70,2013-05-07 16:56:00,
2013-05-07 13:01:00,66.0,63.6,30.06,NNE,22,8.0,20.0,92,0.00,,,0.00,Weather View 32 v70,2013-05-07 17:01:00,
2013-05-07 13:06:00,67.0,65.2,30.06,North,0,13.0,20.0,94,0.00,,,0.00,Weather View 32 v70,2013-05-07 17:06:00,
2013-05-07 13:11:00,67.0,63.6,30.06,NNE,22,8.0,20.0,89,0.00,,,0.00,Weather View 32 v70,2013-05-07 17:11:00,
2013-05-07 13:16:00,68.0,64.6,30.06,NE,45,5.0,20.0,89,0.00,,,0.00,Weather View 32 v70,2013-05-07 17:16:00,
2013-05-07 13:21:00,68.0,64.3,30.06,NNW,338,5.0,20.0,88,0.00,,,0.00,Weather View 32 v70,2013-05-07 17:21:00,
2013-05-07 13:26:00,68.0,64.0,30.06,NNE,22,10.0,20.0,87,0.00,,,0.00,Weather View 32 v70,2013-05-07 17:26:00,
2013-05-07 13:31:00,68.0,63.3,30.05,NNE,22,10.0,20.0,85,0.00,,,0.00,Weather View 32 v70,2013-05-07 17:31:00,
2013-05-07 13:36:00,68.0,62.6,30.05,North,0,10.0,20.0,83,0.00,,,0.00,Weather View 32 v70,2013-05-07 17:36:00,
2013-05-07 13:41:00,69.0,64.3,30.05,NE,45,4.0,20.0,85,0.00,,,0.00,Weather View 32 v70,2013-05-07 17:41:00,
2013-05-07 13:46:00,69.0,63.6,30.05,NNE,22,11.0,20.0,83,0.00,,,0.00,Weather View 32 v70,2013-05-07 17:46:00,
2013-05-07 13:51:00,68.0,61.9,30.05,NNE,22,11.0,20.0,81,0.00,,,0.00,Weather View 32 v70,2013-05-07 17:51:00,
2013-05-07 13:56:00,69.0,63.3,30.05,NW,315,7.0,20.0,82,0.00,,,0.00,Weather View 32 v70,2013-05-07 17:56:00,
2013-05-07 14:01:00,70.0,63.9,30.05,NNE,22,6.0,18.0,81,0.00,,,0.00,Weather View 32 v70,2013-05-07 18:01:00,
2013-05-07 14:06:00,69.0,63.3,30.05,North,0,10.0,18.0,82,0.00,,,0.00,Weather View 32 v70,2013-05-07 18:06:00,
2013-05-07 14:11:00,69.0,63.3,30.04,North,0,9.0,18.0,82,0.00,,,0.00,Weather View 32 v70,2013-05-07 18:11:00,
2013-05-07 14:16:00,69.0,62.9,30.05,NNE,22,10.0,18.0,81,0.00,,,0.00,Weather View 32 v70,2013-05-07 18:16:00,
2013-05-07 14:21:00,69.0,62.6,30.05,NNE,22,9.0,18.0,80,0.00,,,0.00,Weather View 32 v70,2013-05-07 18:21:00,
2013-05-07 14:26:00,69.0,62.2,30.04,NE,45,14.0,18.0,79,0.00,,,0.00,Weather View 32 v70,2013-05-07 18:26:00,
2013-05-07 14:31:00,68.0,61.2,30.04,NNE,22,14.0,18.0,79,0.00,,,0.00,Weather View 32 v70,2013-05-07 18:31:00,
2013-05-07 14:36:00,69.0,63.3,30.04,NNE,22,11.0,20.0,82,0.00,,,0.00,Weather View 32 v70,2013-05-07 18:36:00,
2013-05-07 14:41:00,68.0,61.9,30.04,NNE,22,13.0,20.0,81,0.00,,,0.00,Weather View 32 v70,2013-05-07 18:41:00,
2013-05-07 14:46:00,68.0,62.6,30.04,NNE,22,7.0,20.0,83,0.00,,,0.00,Weather View 32 v70,2013-05-07 18:46:00,
2013-05-07 14:51:00,69.0,63.6,30.04,NNE,22,8.0,20.0,83,0.00,,,0.00,Weather View 32 v70,2013-05-07 18:51:00,
2013-05-07 14:56:00,69.0,63.9,30.04,NNE,22,10.0,20.0,84,0.00,,,0.00,Weather View 32 v70,2013-05-07 18:56:00,
2013-05-07 15:01:00,69.0,63.6,30.04,NNE,22,9.0,20.0,83,0.00,,,0.00,Weather View 32 v70,2013-05-07 19:01:00,
2013-05-07 15:06:00,69.0,63.3,30.03,NNE,22,11.0,20.0,82,0.00,,,0.00,Weather View 32 v70,2013-05-07 19:06:00,
2013-05-07 15:11:00,69.0,63.3,30.03,ENE,68,5.0,20.0,82,0.00,,,0.00,Weather View 32 v70,2013-05-07 19:11:00,
2013-05-07 15:16:00,69.0,63.6,30.03,North,0,7.0,20.0,83,0.00,,,0.00,Weather View 32 v70,2013-05-07 19:16:00,
2013-05-07 15:21:00,69.0,63.3,30.03,NE,45,6.0,20.0,82,0.00,,,0.00,Weather View 32 v70,2013-05-07 19:21:00,
2013-05-07 15:26:00,69.0,63.6,30.03,NNE,22,6.0,20.0,83,0.00,,,0.00,Weather View 32 v70,2013-05-07 19:26:00,
2013-05-07 15:31:00,69.0,63.3,30.03,North,0,8.0,20.0,82,0.00,,,0.00,Weather View 32 v70,2013-05-07 19:31:00,
2013-05-07 15:36:00,69.0,63.3,30.03,NNE,22,13.0,17.0,82,0.00,,,0.00,Weather View 32 v70,2013-05-07 19:36:00,
2013-05-07 15:41:00,69.0,63.3,30.03,NNE,22,6.0,17.0,82,0.00,,,0.00,Weather View 32 v70,2013-05-07 19:41:00,
2013-05-07 15:46:00,69.0,63.3,30.03,NNE,22,5.0,17.0,82,0.00,,,0.00,Weather View 32 v70,2013-05-07 19:46:00,
2013-05-07 15:51:00,68.0,62.6,30.03,NNE,22,8.0,17.0,83,0.00,,,0.00,Weather View 32 v70,2013-05-07 19:51:00,
2013-05-07 15:56:00,68.0,62.3,30.03,NE,45,10.0,15.0,82,0.00,,,0.00,Weather View 32 v70,2013-05-07 19:56:00,
2013-05-07 16:01:00,68.0,62.3,30.03,NNE,22,8.0,15.0,82,0.00,,,0.00,Weather View 32 v70,2013-05-07 20:01:00,
2013-05-07 16:06:00,69.0,63.6,30.03,NNE,22,8.0,15.0,83,0.00,,,0.00,Weather View 32 v70,2013-05-07 20:06:00,
2013-05-07 16:11:00,69.0,63.6,30.02,NW,315,8.0,15.0,83,0.00,,,0.00,Weather View 32 v70,2013-05-07 20:11:00,
2013-05-07 16:16:00,69.0,63.6,30.02,NNE,22,7.0,15.0,83,0.00,,,0.00,Weather View 32 v70,2013-05-07 20:16:00,
2013-05-07 16:21:00,69.0,63.6,30.02,NNE,22,7.0,15.0,83,0.00,,,0.00,Weather View 32 v70,2013-05-07 20:21:00,
2013-05-07 16:26:00,69.0,63.3,30.02,NNE,22,8.0,15.0,82,0.00,,,0.00,Weather View 32 v70,2013-05-07 20:26:00,
2013-05-07 16:31:00,69.0,63.3,30.02,NNE,22,6.0,15.0,82,0.00,,,0.00,Weather View 32 v70,2013-05-07 20:31:00,
2013-05-07 16:36:00,69.0,62.9,30.02,NNE,22,6.0,14.0,81,0.00,,,0.00,Weather View 32 v70,2013-05-07 20:36:00,
2013-05-07 16:41:00,69.0,62.9,30.02,NNW,338,6.0,13.0,81,0.00,,,0.00,Weather View 32 v70,2013-05-07 20:41:00,
2013-05-07 16:46:00,69.0,62.9,30.02,NNW,338,11.0,13.0,81,0.00,,,0.00,Weather View 32 v70,2013-05-07 20:46:00,
2013-05-07 16:51:00,69.0,62.6,30.02,NNE,22,6.0,16.0,80,0.00,,,0.00,Weather View 32 v70,2013-05-07 20:51:00,
2013-05-07 16:56:00,69.0,62.6,30.02,NNE,22,5.0,16.0,80,0.00,,,0.00,Weather View 32 v70,2013-05-07 20:56:00,
2013-05-07 17:01:00,69.0,62.2,30.02,North,0,7.0,16.0,79,0.00,,,0.00,Weather View 32 v70,2013-05-07 21:01:00,
2013-05-07 17:06:00,69.0,62.6,30.02,NNE,22,12.0,16.0,80,0.00,,,0.00,Weather View 32 v70,2013-05-07 21:06:00,
2013-05-07 17:11:00,69.0,62.6,30.02,NNE,22,11.0,16.0,80,0.00,,,0.00,Weather View 32 v70,2013-05-07 21:11:00,
2013-05-07 17:16:00,69.0,62.9,30.02,NNE,22,7.0,16.0,81,0.00,,,0.00,Weather View 32 v70,2013-05-07 21:16:00,
2013-05-07 17:21:00,69.0,62.9,30.02,NNE,22,11.0,16.0,81,0.00,,,0.00,Weather View 32 v70,2013-05-07 21:21:00,
2013-05-07 17:26:00,69.0,62.9,30.02,North,0,11.0,16.0,81,0.00,,,0.00,Weather View 32 v70,2013-05-07 21:26:00,
2013-05-07 17:31:00,69.0,62.9,30.02,NE,45,14.0,16.0,81,0.00,,,0.00,Weather View 32 v70,2013-05-07 21:31:00,
2013-05-07 17:36:00,69.0,62.9,30.02,NNE,22,8.0,16.0,81,0.00,,,0.00,Weather View 32 v70,2013-05-07 21:36:00,
2013-05-07 17:41:00,68.0,62.3,30.02,North,0,9.0,16.0,82,0.00,,,0.00,Weather View 32 v70,2013-05-07 21:41:00,
2013-05-07 17:46:00,68.0,62.6,30.02,NNE,22,5.0,16.0,83,0.00,,,0.00,Weather View 32 v70,2013-05-07 21:46:00,
2013-05-07 17:51:00,68.0,62.6,30.02,NNE,22,7.0,16.0,83,0.00,,,0.00,Weather View 32 v70,2013-05-07 21:51:00,
2013-05-07 17:56:00,68.0,62.3,30.02,NE,45,12.0,16.0,82,0.00,,,0.00,Weather View 32 v70,2013-05-07 21:56:00,
2013-05-07 18:01:00,68.0,62.6,30.02,North,0,8.0,16.0,83,0.00,,,0.00,Weather View 32 v70,2013-05-07 22:01:00,
2013-05-07 18:06:00,68.0,63.0,30.02,NNE,22,9.0,16.0,84,0.00,,,0.00,Weather View 32 v70,2013-05-07 22:06:00,
2013-05-07 18:11:00,68.0,63.0,30.02,NNE,22,6.0,16.0,84,0.00,,,0.00,Weather View 32 v70,2013-05-07 22:11:00,
2013-05-07 18:16:00,67.0,62.3,30.02,NNE,22,6.0,16.0,85,0.00,,,0.00,Weather View 32 v70,2013-05-07 22:16:00,
2013-05-07 18:21:00,67.0,62.7,30.02,NNE,22,9.0,16.0,86,0.00,,,0.00,Weather View 32 v70,2013-05-07 22:21:00,
2013-05-07 18:26:00,67.0,63.0,30.02,NNE,22,6.0,16.0,87,0.00,,,0.00,Weather View 32 v70,2013-05-07 22:26:00,
2013-05-07 18:31:00,67.0,63.3,30.02,NNE,22,6.0,16.0,88,0.00,,,0.00,Weather View 32 v70,2013-05-07 22:31:00,
2013-05-07 18:36:00,67.0,63.3,30.02,NNE,22,5.0,16.0,88,0.00,,,0.00,Weather View 32 v70,2013-05-07 22:36:00,
2013-05-07 18:41:00,67.0,63.3,30.02,NNE,22,6.0,16.0,88,0.00,,,0.00,Weather View 32 v70,2013-05-07 22:41:00,
2013-05-07 18:46:00,66.0,62.7,30.01,NNE,22,10.0,16.0,89,0.00,,,0.00,Weather View 32 v70,2013-05-07 22:46:00,
2013-05-07 18:51:00,66.0,63.0,30.02,NNE,22,5.0,16.0,90,0.00,,,0.00,Weather View 32 v70,2013-05-07 22:51:00,
2013-05-07 18:56:00,66.0,63.0,30.02,NNE,22,5.0,16.0,90,0.00,,,0.00,Weather View 32 v70,2013-05-07 22:56:00,
2013-05-07 19:01:00,66.0,63.3,30.01,NNE,22,5.0,14.0,91,0.00,,,0.00,Weather View 32 v70,2013-05-07 23:01:00,
2013-05-07 19:06:00,66.0,63.3,30.02,NNE,22,4.0,14.0,91,0.00,,,0.00,Weather View 32 v70,2013-05-07 23:06:00,
2013-05-07 19:11:00,66.0,63.6,30.02,NNE,22,5.0,14.0,92,0.00,,,0.00,Weather View 32 v70,2013-05-07 23:11:00,
2013-05-07 19:16:00,66.0,63.9,30.02,North,0,6.0,14.0,93,0.00,,,0.00,Weather View 32 v70,2013-05-07 23:16:00,
2013-05-07 19:21:00,66.0,64.2,30.02,NE,45,4.0,14.0,94,0.00,,,0.00,Weather View 32 v70,2013-05-07 23:21:00,
2013-05-07 19:26:00,65.0,63.8,30.02,NNE,22,5.0,12.0,96,0.00,,,0.00,Weather View 32 v70,2013-05-07 23:26:00,
2013-05-07 19:31:00,65.0,64.4,30.02,North,0,7.0,12.0,98,0.00,,,0.00,Weather View 32 v70,2013-05-07 23:31:00,
2013-05-07 19:36:00,65.0,65.0,30.02,NW,315,5.0,12.0,100,0.00,,,0.00,Weather View 32 v70,2013-05-07 23:36:00,
2013-05-07 19:41:00,65.0,65.0,30.02,NNE,22,6.0,12.0,100,0.00,,,0.00,Weather View 32 v70,2013-05-07 23:41:00,
2013-05-07 19:46:00,65.0,65.0,30.02,NNE,22,6.0,12.0,100,0.00,,,0.00,Weather View 32 v70,2013-05-07 23:46:00,
2013-05-07 19:51:00,65.0,65.0,30.02,North,0,6.0,12.0,100,0.00,,,0.00,Weather View 32 v70,2013-05-07 23:51:00,
2013-05-07 19:56:00,65.0,65.0,30.02,North,0,4.0,11.0,100,0.00,,,0.00,Weather View 32 v70,2013-05-07 23:56:00,
2013-05-07 20:01:00,64.0,64.0,30.02,North,0,5.0,11.0,100,0.00,,,0.00,Weather View 32 v70,2013-05-08 00:01:00,
2013-05-07 20:06:00,64.0,64.0,30.02,NNE,22,5.0,11.0,100,0.00,,,0.00,Weather View 32 v70,2013-05-08 00:06:00,
2013-05-07 20:11:00,64.0,64.0,30.02,North,0,6.0,11.0,100,0.00,,,0.00,Weather View 32 v70,2013-05-08 00:11:00,
2013-05-07 20:16:00,64.0,64.0,30.03,North,0,9.0,11.0,100,0.00,,,0.00,Weather View 32 v70,2013-05-08 00:16:00,
2013-05-07 20:21:00,64.0,64.0,30.03,NNE,22,5.0,11.0,100,0.00,,,0.00,Weather View 32 v70,2013-05-08 00:21:00,
2013-05-07 20:26:00,63.0,63.0,30.03,NNE,22,5.0,11.0,100,0.00,,,0.00,Weather View 32 v70,2013-05-08 00:26:00,
2013-05-07 20:31:00,63.0,63.0,30.03,North,0,2.0,11.0,100,0.00,,,0.00,Weather View 32 v70,2013-05-08 00:31:00,
2013-05-07 20:36:00,63.0,63.0,30.03,NNE,22,3.0,11.0,100,0.00,,,0.00,Weather View 32 v70,2013-05-08 00:36:00,
2013-05-07 20:41:00,63.0,63.0,30.03,NNE,22,5.0,11.0,100,0.00,,,0.00,Weather View 32 v70,2013-05-08 00:41:00,
2013-05-07 20:46:00,62.0,62.0,30.04,NNW,338,8.0,11.0,100,0.00,,,0.00,Weather View 32 v70,2013-05-08 00:46:00,
2013-05-07 20:51:00,62.0,62.0,30.04,NNE,22,8.0,11.0,100,0.00,,,0.00,Weather View 32 v70,2013-05-08 00:51:00,
2013-05-07 20:56:00,62.0,62.0,30.03,NW,315,8.0,11.0,100,0.00,,,0.00,Weather View 32 v70,2013-05-08 00:56:00,
2013-05-07 21:01:00,62.0,62.0,30.03,NNE,22,8.0,11.0,100,0.00,,,0.00,Weather View 32 v70,2013-05-08 01:01:00,
2013-05-07 21:06:00,62.0,62.0,30.04,NNE,22,4.0,11.0,100,0.00,,,0.00,Weather View 32 v70,2013-05-08 01:06:00,
2013-05-07 21:11:00,61.0,61.0,30.04,NNE,22,6.0,11.0,100,0.00,,,0.00,Weather View 32 v70,2013-05-08 01:11:00,
2013-05-07 21:16:00,61.0,61.0,30.04,NNW,338,3.0,11.0,100,0.00,,,0.00,Weather View 32 v70,2013-05-08 01:16:00,
2013-05-07 21:21:00,61.0,61.0,30.04,NNW,338,4.0,11.0,100,0.00,,,0.00,Weather View 32 v70,2013-05-08 01:21:00,
2013-05-07 21:26:00,61.0,61.0,30.04,NNW,338,5.0,10.0,100,0.00,,,0.00,Weather View 32 v70,2013-05-08 01:26:00,
2013-05-07 21:31:00,61.0,61.0,30.04,North,0,1.0,10.0,100,0.00,,,0.00,Weather View 32 v70,2013-05-08 01:31:00,
2013-05-07 21:36:00,61.0,61.0,30.04,NNW,338,3.0,10.0,100,0.00,,,0.00,Weather View 32 v70,2013-05-08 01:36:00,
2013-05-07 21:41:00,61.0,61.0,30.04,NNE,22,5.0,10.0,100,0.00,,,0.00,Weather View 32 v70,2013-05-08 01:41:00,
2013-05-07 21:46:00,61.0,61.0,30.04,North,0,5.0,10.0,100,0.00,,,0.00,Weather View 32 v70,2013-05-08 01:46:00,
2013-05-07 21:51:00,61.0,61.0,30.04,North,0,4.0,10.0,100,0.00,,,0.00,Weather View 32 v70,2013-05-08 01:51:00,
2013-05-07 21:56:00,60.0,60.0,30.04,North,0,3.0,10.0,100,0.00,,,0.00,Weather View 32 v70,2013-05-08 01:56:00,
2013-05-07 22:01:00,60.0,60.0,30.05,North,0,5.0,9.0,100,0.00,,,0.00,Weather View 32 v70,2013-05-08 02:01:00,
2013-05-07 22:06:00,60.0,60.0,30.05,North,0,6.0,10.0,100,0.00,,,0.00,Weather View 32 v70,2013-05-08 02:06:00,
2013-05-07 22:11:00,60.0,60.0,30.05,NNE,22,5.0,10.0,100,0.00,,,0.00,Weather View 32 v70,2013-05-08 02:11:00,
2013-05-07 22:16:00,60.0,60.0,30.05,North,0,2.0,10.0,100,0.00,,,0.00,Weather View 32 v70,2013-05-08 02:16:00,
2013-05-07 22:21:00,60.0,60.0,30.04,North,0,4.0,10.0,100,0.00,,,0.00,Weather View 32 v70,2013-05-08 02:21:00,
2013-05-07 22:26:00,60.0,60.0,30.04,NNE,22,6.0,10.0,100,0.00,,,0.00,Weather View 32 v70,2013-05-08 02:26:00,
2013-05-07 22:31:00,60.0,60.0,30.04,NNW,338,4.0,10.0,100,0.00,,,0.00,Weather View 32 v70,2013-05-08 02:31:00,
2013-05-07 22:36:00,60.0,60.0,30.04,North,0,6.0,10.0,100,0.00,,,0.00,Weather View 32 v70,2013-05-08 02:36:00,
2013-05-07 22:41:00,60.0,60.0,30.04,NNE,22,9.0,10.0,100,0.00,,,0.00,Weather View 32 v70,2013-05-08 02:41:00,
2013-05-07 22:46:00,60.0,60.0,30.04,NNE,22,4.0,11.0,100,0.00,,,0.00,Weather View 32 v70,2013-05-08 02:46:00,
2013-05-07 22:51:00,60.0,60.0,30.04,North,0,6.0,11.0,100,0.00,,,0.00,Weather View 32 v70,2013-05-08 02:51:00,
2013-05-07 22:56:00,60.0,60.0,30.04,NNW,338,5.0,11.0,100,0.00,,,0.00,Weather View 32 v70,2013-05-08 02:56:00,
2013-05-07 23:01:00,60.0,60.0,30.03,NNE,22,5.0,11.0,100,0.00,,,0.00,Weather View 32 v70,2013-05-08 03:01:00,
2013-05-07 23:06:00,60.0,60.0,30.03,North,0,1.0,11.0,100,0.00,,,0.00,Weather View 32 v70,2013-05-08 03:06:00,
2013-05-07 23:11:00,60.0,60.0,30.03,NNE,22,3.0,11.0,100,0.00,,,0.00,Weather View 32 v70,2013-05-08 03:11:00,
2013-05-07 23:16:00,60.0,60.0,30.03,North,0,4.0,11.0,100,0.00,,,0.00,Weather View 32 v70,2013-05-08 03:16:00,
2013-05-07 23:21:00,60.0,60.0,30.03,North,0,7.0,11.0,100,0.00,,,0.00,Weather View 32 v70,2013-05-08 03:21:00,
2013-05-07 23:26:00,60.0,60.0,30.03,NNE,22,1.0,11.0,100,0.00,,,0.00,Weather View 32 v70,2013-05-08 03:26:00,
2013-05-07 23:31:00,60.0,60.0,30.03,NNW,338,4.0,11.0,100,0.00,,,0.00,Weather View 32 v70,2013-05-08 03:31:00,
2013-05-07 23:36:00,60.0,60.0,30.03,NNW,338,4.0,11.0,100,0.00,,,0.00,Weather View 32 v70,2013-05-08 03:36:00,
2013-05-07 23:41:00,60.0,60.0,30.03,NW,315,4.0,11.0,100,0.00,,,0.00,Weather View 32 v70,2013-05-08 03:41:00,
2013-05-07 23:46:00,60.0,60.0,30.03,NW,315,2.0,9.0,100,0.00,,,0.00,Weather View 32 v70,2013-05-08 03:46:00,
2013-05-07 23:51:00,60.0,60.0,30.03,West,270,2.0,9.0,100,0.00,,,0.00,Weather View 32 v70,2013-05-08 03:51:00,
2013-05-07 23:56:00,60.0,60.0,30.02,West,270,5.0,8.0,100,0.00,,,0.00,Weather View 32 v70,2013-05-08 03:56:00,